User: anonymous   Login
Location: Unspecified
(0.0000°N, 0.0000°E)
Time: 04:16:41
(UTC+00:00)
Language:

STARLINK-36068 - Orbit

View from above orbital plane
View from above orbital plane
View from above satellite
View from above satellite

Ground track
Ground track

The orbit is defined by the following mean orbital elements,

1 66845U          26145.42594689 +.00000000 +00000-0 +31692-4 0 00002
2 66845  70.0008 140.8388 0003896 263.3239  96.7476 14.98336229    08
Epoch (UTC): 25 May 2026 10:13:21
Eccentricity: 0.0003896
inclination: 70.0008°
perigee height: 569 km
apogee height: 575 km
right ascension of ascending node: 140.8388°
argument of perigee: 263.3239°
revolutions per day: 14.98336229
mean anomaly at epoch: 96.7476°

The dashed part of the orbit path shows where the satellite is in the earth's shadow,  

DLR